K9APR Weather Reports


time (UTC)temp
F
wind
direction
speed
knots
gust
knots
rain 1hr
in
rain 24hr
in
rain mn
in
humidity
%
barometer
mb
20260508104424 47 165 0.9 2.6 0.00 0.00 0.00 71 1014.0
20260508103524 48 145 0.9 1.7 0.00 0.00 0.00 70 1013.9
20260508102623 48 182 1.7 2.6 0.00 0.00 0.00 70 1014.0
20260508101724 48 186 1.7 4.3 0.00 0.00 0.00 70 1014.1
20260508100826 48 189 0.9 2.6 0.00 0.00 0.00 70 1014.0
20260508095925 49 224 1.7 4.3 0.00 0.00 0.00 69 1014.0
20260508095024 49 235 1.7 4.3 0.00 0.00 0.00 68 1013.9
20260508094124 49 212 1.7 5.2 0.00 0.00 0.00 67 1013.8
20260508093224 49 234 2.6 4.3 0.00 0.00 0.00 68 1014.0
20260508092324 49 232 1.7 4.3 0.00 0.00 0.00 68 1014.2
20260508091424 49 229 0.9 2.6 0.00 0.00 0.00 68 1014.1
20260508090523 49 251 0.9 2.6 0.00 0.00 0.00 68 1014.2
20260508085624 49 241 0.9 1.7 0.00 0.00 0.00 68 1014.3
20260508084723 48 264 0.9 1.7 0.00 0.00 0.00 69 1014.3
20260508083823 48 262 0.9 2.6 0.00 0.00 0.00 69 1014.3
20260508082923 48 243 1.7 4.3 0.00 0.00 0.00 69 1014.4
20260508082023 48 262 0.9 2.6 0.00 0.00 0.00 70 1014.4
20260508081124 48 256 0.0 1.7 0.00 0.00 0.00 71 1014.3
20260508080225 49 291 0.9 2.6 0.00 0.00 0.00 71 1014.4
20260508075323 49 243 0.9 2.6 0.00 0.00 0.00 68 1014.2
20260508074424 49 241 2.6 4.3 0.00 0.00 0.00 69 1014.3
20260508073523 48 264 0.9 2.6 0.00 0.00 0.00 71 1014.4
20260508072624 49 259 0.9 2.6 0.00 0.00 0.00 69 1014.4
20260508071727 48 245 1.7 2.6 0.00 0.00 0.00 68 1014.5
20260508070824 48 251 0.9 1.7 0.00 0.00 0.00 69 1014.5
20260508065924 48 243 0.9 1.7 0.00 0.00 0.00 68 1014.6
20260508065023 48 217 0.0 0.9 0.00 0.00 0.00 68 1014.6
20260508064123 48 203 1.7 4.3 0.00 0.00 0.00 67 1014.8
20260508063224 48 197 0.9 2.6 0.00 0.00 0.00 67 1014.8
20260508062324 48 233 1.7 2.6 0.00 0.00 0.00 67 1014.8
20260508061426 48 234 1.7 2.6 0.00 0.00 0.00 68 1014.8
20260508060523 48 209 1.7 2.6 0.00 0.00 0.00 67 1014.8
20260508055701 49 219 0.9 4.3 0.00 0.00 0.00 67 1014.8
20260508055625 49 219 0.9 4.3 0.00 0.00 0.00 67 1014.8
20260508054724 48 218 0.9 2.6 0.00 0.00 0.00 67 1014.8
20260508053824 49 227 0.9 1.7 0.00 0.00 0.00 67 1014.9
20260508052923 49 217 0.9 2.6 0.00 0.00 0.00 67 1014.9
20260508052023 49 219 0.0 1.7 0.00 0.00 0.00 66 1015.0
20260508051124 49 229 2.6 4.3 0.00 0.00 0.00 66 1015.1
20260508050223 49 212 0.9 1.7 0.00 0.00 0.00 66 1015.0
20260508045323 49 210 1.7 2.6 0.00 0.00 0.00 66 1015.0
20260508044424 50 205 0.9 1.7 0.00 0.00 0.00 66 1015.1
20260508043523 50 189 0.9 2.6 0.00 0.00 0.00 66 1015.1
20260508042623 50 207 1.7 2.6 0.00 0.00 0.00 66 1015.1
20260508041724 50 160 1.7 2.6 0.00 0.00 0.00 66 1015.0
20260508040854 50 174 0.9 1.7 0.00 0.00 0.00 66 1015.0
20260508040822 50 174 0.9 1.7 0.00 0.00 0.00 66 1015.0
20260508035924 50 229 0.9 1.7 0.00 0.00 0.00 67 1015.0
20260508035026 51 158 0.9 0.9 0.00 0.00 0.00 66 1015.0
20260508034123 50 160 0.9 1.7 0.00 0.00 0.00 65 1014.9
20260508033223 50 152 0.9 0.9 0.00 0.00 0.00 66 1015.1
20260508032323 50 138 0.9 1.7 0.00 0.00 0.00 67 1015.0
20260508031424 50 170 1.7 2.6 0.00 0.00 0.00 66 1015.0
20260508030523 50 160 0.0 0.0 0.00 0.00 0.00 65 1015.0
20260508025630 50 151 0.9 2.6 0.00 0.00 0.00 67 1015.1
20260508024724 49 165 0.9 2.6 0.00 0.00 0.00 68 1015.0
20260508023823 49 149 0.0 0.9 0.00 0.00 0.00 68 1014.9
20260508022923 50 149 0.0 0.0 0.00 0.00 0.00 67 1014.8
20260508022023 50 150 0.0 0.0 0.00 0.00 0.00 67 1014.9
20260508021124 50 150 0.0 0.0 0.00 0.00 0.00 67 1014.9
20260508020223 50 235 0.0 0.9 0.00 0.00 0.00 66 1015.0
20260508015323 51 234 0.0 0.9 0.00 0.00 0.00 65 1014.8
20260508014424 51 234 0.0 0.0 0.00 0.00 0.00 64 1014.7
20260508013523 51 234 0.0 0.9 0.00 0.00 0.00 62 1014.9
20260508012623 52 250 0.0 0.9 0.00 0.00 0.00 62 1014.6
20260508011723 53 237 0.0 0.9 0.00 0.00 0.00 62 1014.5
20260508010823 53 240 0.0 0.9 0.00 0.00 0.00 57 1014.5
20260508005924 54 236 0.9 2.6 0.00 0.00 0.00 58 1014.5
20260508005023 54 286 0.9 0.9 0.00 0.00 0.00 58 1014.7
20260508004124 54 284 4.3 5.2 0.00 0.00 0.00 56 1014.8
20260508003222 55 284 4.3 6.1 0.00 0.00 0.00 54 1014.9
20260508002323 55 298 2.6 4.3 0.00 0.00 0.00 55 1014.8
20260508001423 55 300 5.2 5.2 0.00 0.00 0.00 50 1014.8
20260508000523 56 294 4.3 6.1 0.00 0.00 0.00 51 1014.7
20260507235626 56 304 4.3 5.2 0.00 0.00 0.00 55 1014.7
20260507234724 56 285 1.7 2.6 0.00 0.00 0.00 55 1014.5
20260507233823 56 286 1.7 2.6 0.00 0.00 0.00 51 1014.4
20260507232922 56 251 1.7 2.6 0.00 0.00 0.00 50 1014.3
20260507232023 57 282 1.7 2.6 0.00 0.00 0.00 49 1014.3
20260507231124 58 271 4.3 5.2 0.00 0.00 0.00 47 1014.3
20260507230222 58 268 1.7 4.3 0.00 0.00 0.00 45 1014.3
20260507225324 57 289 4.3 5.2 0.00 0.00 0.00 47 1014.5
20260507224423 58 257 1.7 2.6 0.00 0.00 0.00 44 1014.5
20260507223524 59 273 2.6 5.2 0.00 0.00 0.00 45 1014.5
20260507222624 59 294 4.3 6.1 0.00 0.00 0.00 44 1014.4
20260507221724 59 194 2.6 5.2 0.00 0.00 0.00 45 1014.5
20260507220823 58 246 4.3 7.0 0.00 0.00 0.00 45 1014.6
20260507215923 59 274 0.9 2.6 0.00 0.00 0.00 42 1014.6
20260507215023 59 255 2.6 5.2 0.00 0.00 0.00 43 1014.6
20260507214122 59 268 1.7 2.6 0.00 0.00 0.00 40 1014.6
20260507213223 59 275 0.9 5.2 0.00 0.00 0.00 43 1014.6
20260507212324 59 251 2.6 59.1 0.00 0.00 0.00 44 1014.8
20260507212322 59 251 2.6 7.0 0.00 0.00 0.00 44 1014.8
20260507211423 59 305 6.1 7.8 0.00 0.00 0.00 43 1014.7
20260507210524 58 262 1.7 2.6 0.00 0.00 0.00 42 1014.9
20260507205624 59 292 6.1 7.8 0.00 0.00 0.00 45 1015.0
20260507204723 58 295 7.0 8.7 0.00 0.00 0.00 46 1015.0
20260507203822 59 297 5.2 6.1 0.00 0.00 0.00 42 1015.1
20260507202922 58 296 1.7 4.3 0.00 0.00 0.00 46 1015.1
20260507202023 58 298 5.2 7.0 0.00 0.00 0.00 44 1015.1
20260507200222 58 288 7.0 11.3 0.00 0.00 0.00 45 1015.3
20260507195322 58 306 7.0 7.0 0.00 0.00 0.00 43 1015.3
20260507194425 58 305 2.6 6.1 0.00 0.00 0.00 45 1015.4
20260507193524 58 304 6.1 7.0 0.00 0.00 0.00 45 1015.3
20260507192624 58 315 1.7 2.6 0.00 0.00 0.00 47 1015.3
20260507191724 58 311 5.2 6.1 0.00 0.00 0.00 49 1015.5
20260507190822 58 305 7.8 7.8 0.00 0.00 0.00 43 1015.6
20260507185923 58 304 4.3 5.2 0.00 0.00 0.00 47 1015.5
20260507185023 58 308 2.6 5.2 0.00 0.00 0.00 45 1015.4
20260507184122 58 298 7.0 11.3 0.00 0.00 0.00 53 1015.5
20260507183224 57 287 4.3 7.0 0.00 0.00 0.00 50 1015.5
20260507182323 56 297 4.3 10.4 0.00 0.00 0.00 51 1015.7
20260507181422 56 302 4.3 5.2 0.00 0.00 0.00 45 1015.8
20260507180524 56 302 2.6 5.2 0.00 0.00 0.00 47 1015.8
20260507175624 57 297 6.1 8.7 0.00 0.00 0.00 51 1015.8
20260507174722 56 300 4.3 5.2 0.00 0.00 0.00 52 1015.9
20260507173823 56 301 5.2 7.8 0.00 0.00 0.00 52 1016.0
20260507172925 56 311 2.6 4.3 0.00 0.00 0.00 50 1016.1
20260507172023 55 301 4.3 7.0 0.00 0.00 0.00 47 1016.2
20260507171125 55 308 6.1 7.8 0.00 0.00 0.00 50 1016.4
20260507170223 55 295 7.0 10.4 0.00 0.00 0.00 49 1016.3
20260507165322 55 298 7.0 10.4 0.00 0.00 0.00 54 1016.4
20260507164423 54 305 4.3 5.2 0.00 0.00 0.00 48 1016.6
20260507163522 54 304 1.7 2.6 0.00 0.00 0.00 49 1016.7
20260507162623 53 305 6.1 10.4 0.00 0.00 0.00 50 1016.6
20260507161723 53 308 5.2 7.8 0.00 0.00 0.00 56 1016.7
20260507160822 53 316 4.3 7.0 0.00 0.00 0.00 51 1016.6
20260507155924 53 305 7.0 10.4 0.00 0.00 0.00 54 1016.7
20260507155024 53 308 4.3 5.2 0.00 0.00 0.00 49 1016.7
20260507154123 52 302 6.1 7.8 0.00 0.00 0.00 51 1016.6
20260507153223 52 306 7.0 8.7 0.00 0.00 0.00 56 1016.6
20260507152323 52 287 6.1 8.7 0.00 0.00 0.00 56 1016.5
20260507151422 51 304 4.3 4.3 0.00 0.00 0.00 52 1016.6
20260507150523 50 294 5.2 10.4 0.00 0.00 0.00 57 1016.4
20260507145624 50 297 6.1 7.0 0.00 0.00 0.00 54 1016.5
20260507144723 50 284 5.2 7.0 0.00 0.00 0.00 59 1016.7
20260507143825 50 298 7.0 10.4 0.00 0.00 0.00 59 1016.7
20260507142922 49 290 4.3 5.2 0.00 0.00 0.00 58 1016.7
20260507142024 49 298 6.1 8.7 0.00 0.00 0.00 61 1016.9
20260507141126 48 284 4.3 7.8 0.00 0.00 0.00 64 1016.9
20260507140223 47 297 4.3 6.1 0.00 0.00 0.00 60 1016.8
20260507135326 47 298 6.1 7.8 0.00 0.00 0.00 63 1016.7
20260507134423 46 292 2.6 4.3 0.00 0.00 0.00 69 1016.7
20260507133523 46 295 1.7 2.6 0.00 0.00 0.00 67 1016.7
20260507132623 45 303 2.6 2.6 0.00 0.00 0.00 68 1016.7
20260507131723 44 307 1.7 2.6 0.00 0.00 0.00 71 1016.8
20260507130856 44 299 1.7 2.6 0.00 0.00 0.00 73 1016.7
20260507130823 44 299 1.7 2.6 0.00 0.00 0.00 73 1016.7
20260507125923 43 293 2.6 4.3 0.00 0.00 0.00 77 1016.8
20260507125026 42 289 1.7 2.6 0.00 0.00 0.00 77 1016.5
20260507124127 42 292 1.7 1.7 0.00 0.00 0.00 79 1016.6
20260507123223 41 295 0.9 0.9 0.00 0.00 0.00 84 1016.6
20260507122327 40 285 0.9 1.7 0.00 0.00 0.00 84 1016.6
20260507121426 39 291 0.9 0.9 0.00 0.00 0.00 85 1016.6
20260507120601 39 297 0.0 0.9 0.00 0.00 0.00 87 1016.5
20260507120524 39 297 0.0 0.9 0.00 0.00 0.00 87 1016.5
20260507115622 38 297 0.0 0.9 0.00 0.00 0.00 86 1016.5
20260507114723 38 297 0.0 0.0 0.00 0.00 0.00 86 1016.4
20260507113855 37 297 0.0 0.0 0.00 0.00 0.00 86 1016.4
20260507113824 37 297 0.0 0.0 0.00 0.00 0.00 86 1016.4
20260507112923 37 297 0.0 0.0 0.00 0.00 0.00 87 1016.5
20260507112022 36 297 0.0 0.0 0.00 0.00 0.00 87 1016.5
20260507111122 36 297 0.0 0.0 0.00 0.00 0.00 87 1016.4
20260507110222 35 297 0.0 0.0 0.00 0.00 0.00 87 1016.4
20260507105326 36 297 0.0 0.0 0.00 0.00 0.00 87 1016.3